| time (UTC) | temp C | wind direction | speed KPH | gust KPH | rain 1hr cm | rain 24hr cm | rain mn cm | humidity % | barometer mb |
| 20260503004505 | 8 | 135 | 0.0 | 3.2 | 0.00 | 0.00 | 0.00 | 32 | 1021.9 |
| 20260503001505 | 9 | 133 | 1.6 | 4.8 | 0.00 | 0.00 | 0.00 | 31 | 1022.2 |
| 20260503000004 | 10 | 120 | 1.6 | 3.2 | 0.00 | 0.00 | 0.00 | 31 | 1022.2 |
| 20260502234505 | 10 | 225 | 1.6 | 4.8 | 0.00 | 0.00 | 0.00 | 31 | 1022.5 |
| 20260502233004 | 10 | 225 | 1.6 | 6.4 | 0.00 | 0.00 | 0.00 | 31 | 1022.4 |
| 20260502231508 | 10 | 225 | 3.2 | 6.4 | 0.00 | 0.00 | 0.00 | 31 | 1022.5 |
| 20260502224508 | 10 | 188 | 3.2 | 6.4 | 0.00 | 0.00 | 0.00 | 31 | 1022.8 |
| 20260502221508 | 10 | 72 | 0.0 | 3.2 | 0.00 | 0.00 | 0.00 | 31 | 1022.8 |
| 20260502214507 | 11 | 119 | 1.6 | 3.2 | 0.00 | 0.00 | 0.00 | 27 | 1022.9 |
| 20260502213008 | 11 | 172 | 1.6 | 4.8 | 0.00 | 0.00 | 0.00 | 27 | 1023.0 |
| 20260502211507 | 12 | 160 | 3.2 | 6.4 | 0.00 | 0.00 | 0.00 | 27 | 1023.0 |
| 20260502210008 | 12 | 210 | 3.2 | 6.4 | 0.00 | 0.00 | 0.00 | 27 | 1023.1 |
| 20260502203008 | 12 | 171 | 3.2 | 6.4 | 0.00 | 0.00 | 0.00 | 25 | 1023.3 |
| 20260502201507 | 12 | 188 | 3.2 | 6.4 | 0.00 | 0.00 | 0.00 | 25 | 1023.5 |
| 20260502200008 | 12 | 185 | 4.8 | 8.0 | 0.00 | 0.00 | 0.00 | 25 | 1023.5 |
| 20260502193007 | 12 | 183 | 3.2 | 6.4 | 0.00 | 0.00 | 0.00 | 25 | 1023.4 |
| 20260502191507 | 12 | 202 | 1.6 | 6.4 | 0.00 | 0.00 | 0.00 | 25 | 1023.6 |
| 20260502190007 | 13 | 225 | 1.6 | 3.2 | 0.00 | 0.00 | 0.00 | 25 | 1023.5 |
| 20260502184508 | 13 | 160 | 0.0 | 3.2 | 0.00 | 0.00 | 0.00 | 25 | 1023.2 |
| 20260502183007 | 14 | 36 | 0.0 | 3.2 | 0.00 | 0.00 | 0.00 | 25 | 1023.2 |
| 20260502181508 | 15 | 80 | 0.0 | 3.2 | 0.00 | 0.00 | 0.00 | 23 | 1023.1 |
| 20260502151507 | 25 | 173 | 4.8 | 12.9 | 0.00 | 0.00 | 0.00 | 21 | 1024.2 |
| 20260502123006 | 21 | 270 | 6.4 | 12.9 | 0.00 | 0.00 | 0.00 | 21 | 1025.8 |
| 20260502121507 | 20 | 303 | 4.8 | 12.9 | 0.00 | 0.00 | 0.00 | 22 | 1025.8 |
| 20260502114506 | 21 | 342 | 4.8 | 8.0 | 0.00 | 0.00 | 0.00 | 22 | 1026.3 |
| 20260502113006 | 21 | 231 | 6.4 | 11.3 | 0.00 | 0.00 | 0.00 | 22 | 1026.4 |
| 20260502111506 | 20 | 329 | 3.2 | 9.7 | 0.00 | 0.00 | 0.00 | 21 | 1026.3 |
| 20260502104506 | 20 | 270 | 3.2 | 9.7 | 0.00 | 0.00 | 0.00 | 21 | 1026.6 |
| 20260502103006 | 21 | 186 | 4.8 | 11.3 | 0.00 | 0.00 | 0.00 | 22 | 1026.6 |
| 20260502101506 | 20 | 149 | 4.8 | 8.0 | 0.00 | 0.00 | 0.00 | 22 | 1027.1 |
| 20260502091506 | 18 | 188 | 3.2 | 8.0 | 0.00 | 0.00 | 0.00 | 23 | 1027.4 |
| 20260502071505 | 14 | 270 | 3.2 | 8.0 | 0.00 | 0.00 | 0.00 | 29 | 1028.0 |
| 20260502064506 | 13 | 270 | 3.2 | 8.0 | 0.00 | 0.00 | 0.00 | 31 | 1028.1 |
| 20260502063005 | 13 | 273 | 3.2 | 6.4 | 0.00 | 0.00 | 0.00 | 31 | 1028.0 |
| 20260502061506 | 12 | 184 | 1.6 | 4.8 | 0.00 | 0.00 | 0.00 | 31 | 1028.1 |
| 20260502060006 | 11 | 152 | 3.2 | 4.8 | 0.00 | 0.00 | 0.00 | 31 | 1028.1 |
| 20260502054505 | 11 | 90 | 1.6 | 3.2 | 0.00 | 0.00 | 0.00 | 34 | 1028.2 |
| 20260502053005 | 10 | 90 | 0.0 | 3.2 | 0.00 | 0.00 | 0.00 | 37 | 1028.0 |
| 20260502043005 | 6 | 90 | 0.0 | 3.2 | 0.00 | 0.00 | 0.00 | 41 | 1027.9 |
| 20260502040006 | 6 | 90 | 1.6 | 3.2 | 0.00 | 0.00 | 0.00 | 39 | 1027.7 |
| 20260502034506 | 6 | 90 | 1.6 | 3.2 | 0.00 | 0.00 | 0.00 | 38 | 1027.8 |
| 20260502033005 | 6 | 90 | 0.0 | 3.2 | 0.00 | 0.00 | 0.00 | 38 | 1027.7 |
| 20260502031505 | 6 | 90 | 1.6 | 3.2 | 0.00 | 0.00 | 0.00 | 39 | 1027.8 |
| 20260502024505 | 6 | 90 | 0.0 | 3.2 | 0.00 | 0.00 | 0.00 | 37 | 1028.0 |
| 20260502021505 | 6 | 90 | 0.0 | 3.2 | 0.00 | 0.00 | 0.00 | 37 | 1027.9 |
| 20260502020005 | 7 | 90 | 0.0 | 3.2 | 0.00 | 0.00 | 0.00 | 37 | 1027.9 |
| 20260502014504 | 7 | 90 | 0.0 | 3.2 | 0.00 | 0.00 | 0.00 | 36 | 1028.2 |
| 20260502013006 | 7 | 90 | 0.0 | 3.2 | 0.00 | 0.00 | 0.00 | 36 | 1027.9 |
| 20260502011505 | 7 | 90 | 1.6 | 3.2 | 0.00 | 0.00 | 0.00 | 36 | 1028.3 |
| 20260502010005 | 7 | 90 | 1.6 | 3.2 | 0.00 | 0.00 | 0.00 | 35 | 1028.1 |